Temperature
10 9 9 9 9 9 9 9 9 8 8 8 8 8 8 8 8 8 7 7 7 7 6 6 6 6 5 5 5 4 4 4 3 3 3 3 3 3 3 2 2 2 2
9 9 9 9 9 8 8 8 8 8 8 8 8 8 8 7 7 7 7 7 6 6 6 5 5 5 5 4 4 4 4 3 3 3 3 3 2 2 2 2 2 2 2
8 8 8 8 8 8 8 8 8 7 7 7 7 7 7 7 7 6 6 6 6 5 5 5 5 4 4 4 4 3 3 3 3 2 2 2 2 1 1 1 1 1 1
8 7 7 7 7 7 7 7 7 7 7 7 6 6 6 6 6 6 6 5 5 5 5 4 4 4 4 3 3 3 2 2 2 2 1 1 1 1 1 1 1 1 0
7 7 7 7 6 6 6 6 6 6 6 6 6 6 5 5 5 5 5 5 4 4 4 4 4 4 3 3 3 2 2 2 1 1 1 1 0 0 0 -0 -0 -0 -0
6 6 6 6 6 6 6 5 5 5 5 5 5 5 5 5 5 5 4 4 4 4 3 3 3 3 3 2 2 2 1 1 1 0 0 0 0 -0 -1 -1 -1 -1 -1
5 5 5 5 5 5 5 5 5 5 5 5 5 4 4 4 4 4 4 3 3 3 3 2 2 2 2 1 1 1 1 0 0 -0 -0 -0 -1 -1 -1 -1 -2 -2 -2
5 5 5 5 5 5 5 4 4 4 4 4 4 4 3 3 3 3 3 3 2 2 2 2 1 1 1 1 0 0 0 -0 -0 -1 -1 -1 -1 -1 -2 -2 -2 -2 -2
4 4 4 4 4 4 4 4 4 4 3 3 3 3 3 3 3 2 2 2 2 1 1 1 1 0 0 -0 -0 -0 -0 -1 -1 -1 -1 -1 -1 -2 -2 -2 -3 -3 -3
3 3 3 3 3 3 3 3 3 3 3 3 3 2 2 2 2 2 1 1 1 1 0 0 0 0 -0 -1 -1 -1 -1 -1 -1 -1 -1 -1 -2 -2 -2 -3 -3 -4 -4
2 2 2 2 2 2 2 2 2 2 2 2 2 2 1 1 1 1 1 0 0 0 -0 -0 -0 -1 -1 -1 -1 -1 -2 -2 -2 -2 -2 -2 -2 -2 -3 -3 -4 -4 -4
2 2 2 2 2 2 1 1 1 1 1 1 1 1 1 0 0 0 -0 -0 -0 -1 -1 -1 -1 -1 -1 -1 -2 -2 -2 -2 -2 -3 -3 -3 -3 -3 -3 -3 -4 -4 -4
1 1 1 1 1 1 1 1 1 0 0 0 -0 -0 -0 -0 -1 -1 -1 -1 -1 -1 -1 -1 -2 -2 -2 -2 -2 -2 -3 -3 -3 -3 -3 -3 -3 -4 -4 -4 -4 -4 -4
0 -0 -0 -0 -0 -0 -0 -0 -0 -0 -0 -1 -1 -1 -1 -1 -1 -1 -2 -2 -2 -2 -2 -2 -2 -2 -2 -3 -3 -3 -3 -3 -4 -4 -4 -4 -4 -4 -4 -5 -5 -5 -5
-1 -1 -1 -1 -1 -1 -1 -1 -1 -1 -1 -1 -1 -1 -2 -2 -2 -2 -2 -2 -2 -2 -3 -3 -3 -3 -3 -3 -3 -3 -3 -4 -4 -4 -4 -5 -5 -5 -5 -5 -5 -5 -6
-1 -1 -1 -1 -2 -2 -2 -2 -2 -2 -2 -2 -2 -2 -2 -2 -2 -2 -3 -3 -3 -3 -3 -3 -3 -3 -3 -4 -4 -4 -4 -4 -4 -5 -5 -5 -5 -5 -6 -6 -6 -6 -6
-2 -2 -2 -2 -2 -2 -2 -2 -2 -2 -2 -2 -2 -2 -3 -3 -3 -3 -3 -3 -3 -3 -4 -4 -4 -4 -4 -4 -4 -4 -5 -5 -5 -5 -5 -5 -6 -6 -6 -6 -6 -6 -7
-3 -3 -3 -3 -3 -3 -3 -3 -3 -3 -3 -3 -3 -3 -3 -3 -4 -4 -4 -4 -4 -4 -4 -4 -4 -4 -4 -4 -5 -5 -5 -5 -5 -5 -6 -6 -6 -6 -6 -6 -7 -7 -7
-4 -4 -4 -4 -4 -4 -4 -4 -4 -4 -4 -4 -4 -4 -4 -4 -4 -4 -4 -4 -4 -4 -4 -5 -5 -5 -5 -5 -5 -5 -5 -6 -6 -6 -6 -6 -6 -7 -7 -7 -7 -7 -8
-4 -4 -4 -4 -4 -4 -4 -4 -4 -5 -4 -4 -4 -4 -4 -5 -5 -4 -5 -5 -5 -5 -5 -5 -5 -5 -5 -5 -5 -5 -6 -6 -6 -6 -6 -7 -7 -7 -7 -7 -8 -8 -8
-5 -5 -5 -5 -5 -5 -5 -5 -5 -5 -5 -5 -5 -5 -5 -5 -5 -5 -5 -5 -5 -5 -5 -5 -5 -5 -5 -6 -6 -6 -6 -6 -6 -7 -7 -7 -7 -7 -8 -8 -8 -8 -8
-5 -5 -5 -5 -5 -5 -5 -5 -6 -6 -6 -6 -5 -5 -5 -5 -6 -5 -5 -5 -5 -5 -6 -6 -6 -6 -6 -6 -6 -6 -6 -7 -7 -7 -7 -7 -8 -8 -8 -8 -8 -8 -8
-6 -6 -6 -6 -6 -6 -6 -6 -6 -6 -6 -6 -6 -6 -6 -6 -6 -6 -6 -6 -6 -6 -6 -6 -6 -6 -6 -6 -7 -7 -7 -7 -7 -7 -7 -8 -8 -8 -8 -8 -8 -8 -8
-6 -6 -6 -6 -6 -6 -6 -6 -6 -6 -6 -6 -6 -6 -6 -6 -6 -6 -6 -6 -6 -6 -6 -6 -6 -6 -6 -6 -7 -7 -7 -7 -7 -7 -8 -8 -8 -8 -8 -8 -8 -8 -8
-7 -7 -7 -7 -7 -7 -7 -7 -7 -7 -7 -7 -7 -7 -7 -6 -6 -6 -6 -6 -6 -6 -6 -6 -6 -6 -6 -7 -7 -7 -7 -7 -7 -7 -8 -8 -8 -8 -8 -8 -8 -8 -8
-7 -7 -7 -7 -7 -7 -7 -7 -7 -7 -7 -7 -7 -7 -7 -7 -7 -7 -7 -7 -6 -6 -6 -6 -7 -7 -7 -7 -7 -7 -7 -7 -7 -7 -8 -8 -8 -8 -8 -8 -8 -8 -8
Wind_Speed
6 6 6 5 5 5 5 5 4 4 5 5 5 5 5 5 5 4 4 4 4 4 4 4 4 4 4 4 4 4 5 5 7 7 7 7 8 8 8 9 10 10 10
6 6 5 4 4 4 4 4 4 4 4 4 5 5 5 5 5 5 5 4 4 4 4 4 5 4 5 4 4 5 5 5 6 8 8 7 8 8 9 9 9 9 11
5 5 5 4 4 4 3 3 3 3 3 4 4 5 5 5 5 5 5 4 4 4 3 4 4 4 5 4 5 5 5 5 5 6 7 7 7 7 9 9 9 9 10
5 4 4 3 3 3 3 3 3 3 3 4 4 4 4 4 4 4 4 3 3 3 3 4 5 5 5 5 4 5 4 5 5 5 6 7 7 7 7 8 8 8 9
4 4 3 3 3 3 3 2 2 2 2 3 3 3 3 3 3 4 4 4 4 3 3 3 4 4 5 5 4 5 4 4 5 5 6 6 7 7 7 7 9 9 9
4 3 3 3 2 2 2 2 2 2 2 2 2 3 3 3 4 5 4 4 4 3 3 3 3 3 3 4 5 5 5 5 6 6 6 7 9 8 8 8 8 9 9
3 3 3 3 2 2 2 2 2 2 2 2 2 2 3 3 4 4 4 3 4 4 4 3 3 3 3 3 4 4 5 7 8 8 8 8 9 8 9 9 9 10 10
3 3 2 2 2 2 1 2 2 1 2 2 2 3 3 3 4 4 4 3 3 3 4 4 3 3 3 4 3 4 5 5 6 6 7 8 8 8 8 9 10 10 10
3 2 2 1 2 1 1 1 1 1 1 1 2 2 3 3 4 4 3 2 2 3 3 3 4 4 4 4 4 4 5 5 5 7 8 9 10 10 9 6 7 7 8
2 2 1 1 1 1 1 1 1 1 1 1 1 2 3 3 3 4 3 2 2 2 3 3 4 4 5 5 4 4 5 6 6 6 6 7 7 7 8 7 6 7 7
2 1 1 1 0 0 1 1 1 1 1 1 1 2 2 3 3 4 3 2 3 3 3 3 3 5 5 6 6 5 6 6 5 5 5 5 5 5 5 6 6 6 7
1 1 1 1 1 0 0 1 1 1 1 1 1 2 2 2 2 3 3 3 4 3 3 3 3 4 6 6 5 5 6 6 4 4 4 5 5 6 6 6 8 8 8
1 1 1 1 1 0 0 1 1 1 1 1 1 1 2 2 2 2 2 3 4 3 3 4 4 4 5 4 4 5 5 3 3 4 5 5 5 6 6 6 7 7 9
1 1 1 1 1 1 0 0 1 1 1 1 1 2 2 2 2 2 2 2 3 3 2 2 3 3 3 4 4 4 3 3 4 5 5 5 5 5 5 5 6 6 6
1 1 1 1 0 1 1 1 1 1 2 2 2 2 2 3 3 4 4 3 3 3 3 2 2 2 2 3 3 3 3 3 4 4 5 5 5 5 6 5 5 6 6
0 1 1 1 0 0 0 1 2 1 2 2 3 3 3 4 4 4 5 5 4 4 3 2 3 3 3 3 3 4 4 4 4 4 5 5 5 5 6 5 5 6 7
1 1 1 1 1 1 1 1 1 2 2 2 2 2 2 3 4 4 4 4 4 4 3 3 3 3 3 3 3 4 4 4 4 5 5 5 5 5 6 6 6 6 6
1 1 1 1 1 1 1 1 1 1 2 2 2 2 3 3 4 3 4 3 3 3 2 3 3 3 3 3 4 4 4 4 4 5 5 5 5 5 5 6 5 6 7
1 1 1 1 1 1 1 1 1 2 2 2 2 2 3 3 3 3 3 2 2 3 3 3 3 3 3 4 4 4 5 5 5 5 5 5 5 5 5 5 6 7 7
1 1 1 1 1 1 1 1 1 2 2 2 2 3 3 3 2 3 2 2 3 3 3 3 3 4 4 4 4 4 4 5 5 5 5 5 4 4 5 6 6 6 6
1 1 1 1 1 1 1 2 2 2 2 2 3 3 4 3 3 3 3 3 3 3 3 3 4 4 4 4 4 5 5 5 5 4 5 4 4 4 4 5 5 6 6
1 1 1 1 1 1 2 2 2 2 2 3 3 3 4 3 3 3 3 3 4 3 3 4 4 4 4 4 4 4 5 5 5 5 4 4 4 4 5 5 5 5 6
1 1 1 1 1 2 2 2 2 2 2 3 3 3 3 3 3 3 4 4 4 4 4 4 4 4 4 5 5 5 5 5 5 5 4 4 4 4 4 5 6 6 6
1 2 2 1 1 1 2 2 2 2 3 3 3 3 3 3 4 4 4 4 4 4 4 4 4 5 6 6 5 6 6 6 6 5 5 5 5 5 5 5 5 6 6
2 2 2 2 1 2 2 2 2 2 3 3 3 3 4 4 4 4 4 4 5 4 5 5 5 5 6 7 6 6 7 7 7 6 5 4 5 5 5 5 5 6 6
2 2 2 2 2 2 2 2 2 3 3 3 3 3 4 4 4 4 4 4 4 4 4 5 5 6 7 6 6 7 7 7 6 7 5 4 4 4 4 4 5 5 5
Wind_Direction
162 163 165 171 173 175 180 185 189 195 197 198 198 200 202 204 206 208 213 214 221 227 228 234 243 252 257 260 262 264 267 269 274 287 290 291 291 297 303 302 301 301 301
159 159 158 162 168 172 178 186 193 199 200 200 201 203 204 206 207 210 212 212 219 227 233 239 247 253 258 262 262 263 266 272 274 282 289 290 293 296 299 299 303 301 300
153 153 151 157 167 173 178 186 194 199 198 197 204 207 209 209 209 209 208 212 219 226 233 240 248 249 256 263 267 267 271 275 275 275 285 291 294 297 299 298 300 300 301
144 148 150 158 169 174 176 182 193 197 198 198 205 210 210 207 201 196 199 209 218 228 239 248 251 251 255 261 266 267 272 278 277 275 282 288 293 297 298 300 302 302 302
137 140 147 153 158 164 172 182 186 191 198 199 200 202 204 204 200 201 206 212 219 230 243 255 259 261 265 267 265 265 269 272 274 275 279 287 289 298 299 300 298 302 301
128 128 132 139 144 153 163 173 173 176 185 192 200 205 213 215 197 205 211 215 221 227 240 258 266 259 258 270 273 273 271 267 270 276 279 280 286 291 295 296 299 301 300
120 122 125 127 125 133 152 166 174 182 191 204 212 217 228 222 202 206 212 217 222 232 240 250 259 259 261 265 275 286 285 283 275 272 275 279 285 290 293 294 294 294 293
110 109 107 117 120 124 149 173 187 196 207 220 224 229 238 230 212 210 210 218 227 237 244 248 251 256 259 267 276 283 292 295 291 285 279 283 286 288 286 286 289 291 291
88 82 82 108 128 136 157 186 192 194 220 238 242 242 244 239 218 214 209 224 230 249 260 258 254 257 257 269 278 282 294 299 301 292 292 293 294 293 291 290 291 292 294
70 59 55 70 133 173 203 217 210 203 223 247 256 253 249 249 227 223 221 220 231 251 262 263 260 260 265 271 272 272 281 290 295 299 299 298 297 295 292 284 283 286 292
46 51 47 49 72 230 236 230 215 203 213 236 261 276 269 259 242 229 233 237 232 247 259 265 263 263 277 280 284 278 278 292 292 292 295 297 298 296 294 290 287 281 283
54 53 36 27 25 258 225 228 211 196 210 234 273 303 300 281 261 249 259 264 264 253 258 264 265 274 285 289 286 286 295 300 292 292 295 297 299 300 300 297 291 285 280
70 55 39 29 18 346 223 223 214 201 216 241 263 285 303 305 293 281 274 278 289 279 271 276 283 284 286 282 278 289 294 290 288 291 294 296 298 297 299 298 293 289 286
71 54 41 37 25 13 356 268 221 219 229 246 261 277 295 298 294 292 285 288 293 287 279 283 287 281 281 281 283 287 291 289 290 290 294 297 300 299 298 300 300 302 298
43 28 13 16 17 11 359 325 280 270 248 249 259 264 270 280 288 297 295 285 284 283 293 287 284 282 279 287 295 301 302 299 298 297 295 297 298 299 300 302 299 299 297
348 335 328 336 341 338 348 4 26 327 317 300 288 282 285 287 294 297 299 296 294 289 289 266 266 271 275 284 291 296 299 299 299 297 295 295 297 299 300 302 299 296 298
311 305 311 304 289 276 286 295 331 3 1 323 302 309 310 311 306 308 314 309 293 286 272 264 268 274 281 284 285 289 293 295 295 292 291 293 294 295 297 299 301 302 302
318 320 309 301 298 280 266 271 276 282 303 321 329 321 322 319 313 315 326 330 305 293 274 268 273 279 281 281 283 286 289 291 291 290 291 290 291 293 295 298 301 305 307
329 327 322 313 307 300 294 288 282 280 286 303 315 322 333 331 323 318 320 307 286 284 283 278 278 278 277 278 280 282 283 285 287 289 290 292 293 293 294 299 303 305 304
319 332 313 298 300 302 291 277 278 281 288 293 301 310 321 322 312 311 310 303 292 284 281 279 279 279 278 277 279 280 283 286 289 290 293 295 296 295 295 298 301 303 304
316 312 327 308 292 288 282 276 277 277 279 291 299 304 307 306 297 296 298 297 295 287 281 281 280 279 277 276 276 278 281 285 289 291 293 295 297 297 296 296 298 300 303
312 304 308 306 300 294 296 290 283 283 285 289 299 306 310 307 296 293 295 295 296 290 281 275 275 277 275 275 276 279 281 283 287 289 290 293 294 294 294 295 298 302 306
317 311 311 312 307 305 310 300 290 286 290 296 301 304 302 300 296 295 296 298 299 296 287 278 277 279 279 279 277 273 273 276 281 283 286 287 288 289 291 293 297 303 308
327 322 317 316 319 309 306 303 301 300 301 304 304 300 297 299 299 300 301 298 301 298 294 288 281 280 283 285 282 277 274 278 281 277 276 277 283 286 289 292 297 303 304
342 334 327 319 311 305 304 304 304 305 304 301 300 301 301 302 300 299 300 300 301 299 298 296 290 287 285 283 283 282 281 282 282 282 279 277 278 282 287 291 297 302 306
357 346 335 327 318 310 305 303 304 305 303 303 303 305 305 304 302 302 302 301 303 305 303 301 298 294 292 289 287 290 292 288 284 283 281 277 280 287 292 294 298 301 305
Height
1481 1483 1486 1488 1490 1492 1493 1495 1496 1497 1498 1499 1500 1500 1501 1502 1502 1503 1503 1504 1504 1504 1503 1503 1503 1502 1502 1501 1500 1499 1498 1497 1493 1489 1489 1488 1486 1484 1481 1479 1476 1472 1469
1478 1480 1483 1485 1486 1488 1490 1491 1492 1493 1494 1495 1496 1496 1497 1497 1498 1498 1499 1499 1499 1499 1499 1498 1498 1497 1497 1496 1495 1494 1493 1492 1490 1485 1483 1482 1480 1478 1476 1473 1470 1467 1464
1475 1477 1479 1481 1483 1485 1486 1487 1489 1489 1490 1491 1491 1492 1492 1493 1493 1494 1494 1495 1495 1495 1494 1494 1493 1493 1492 1491 1490 1489 1488 1486 1485 1482 1478 1477 1475 1473 1471 1468 1465 1462 1459
1473 1475 1477 1479 1480 1482 1483 1484 1485 1486 1486 1487 1488 1488 1488 1489 1489 1490 1490 1490 1490 1490 1490 1489 1489 1488 1487 1486 1485 1484 1482 1481 1480 1477 1474 1472 1470 1468 1466 1463 1459 1457 1453
1470 1472 1474 1476 1477 1479 1480 1481 1481 1482 1483 1483 1484 1484 1484 1485 1485 1485 1486 1486 1486 1485 1485 1485 1484 1483 1482 1481 1480 1479 1477 1476 1474 1472 1470 1467 1465 1463 1461 1458 1455 1451 1448
1469 1470 1472 1473 1475 1476 1477 1478 1478 1479 1479 1480 1480 1480 1480 1481 1481 1482 1482 1482 1481 1481 1480 1480 1479 1478 1477 1476 1475 1474 1473 1472 1470 1468 1465 1463 1460 1459 1456 1454 1450 1446 1442
1467 1469 1470 1471 1472 1473 1474 1475 1475 1475 1476 1476 1477 1477 1477 1477 1478 1478 1478 1477 1477 1476 1476 1475 1474 1473 1472 1471 1470 1469 1468 1467 1466 1465 1461 1459 1456 1454 1452 1449 1446 1443 1438
1466 1467 1468 1469 1469 1470 1471 1472 1472 1472 1473 1473 1473 1473 1473 1473 1474 1474 1474 1473 1473 1472 1472 1471 1470 1469 1468 1467 1466 1465 1463 1462 1461 1459 1457 1454 1452 1450 1448 1445 1441 1438 1434
1464 1465 1466 1467 1467 1468 1468 1469 1469 1469 1470 1470 1470 1470 1470 1470 1470 1470 1469 1469 1468 1468 1468 1467 1466 1465 1464 1464 1462 1460 1458 1457 1455 1454 1452 1449 1447 1445 1443 1440 1437 1433 1428
1463 1464 1464 1465 1465 1465 1466 1466 1466 1466 1466 1466 1466 1466 1466 1466 1466 1466 1466 1465 1464 1464 1463 1463 1462 1461 1460 1459 1458 1456 1454 1452 1451 1448 1446 1444 1442 1440 1438 1436 1433 1430 1425
1461 1462 1462 1463 1463 1463 1463 1463 1463 1463 1463 1463 1463 1463 1463 1462 1462 1462 1462 1462 1461 1460 1459 1458 1458 1457 1456 1455 1454 1452 1450 1449 1446 1444 1441 1439 1437 1435 1433 1431 1429 1426 1422
1460 1460 1460 1460 1461 1461 1461 1461 1461 1461 1460 1460 1460 1460 1460 1459 1459 1458 1458 1458 1458 1457 1455 1454 1453 1453 1452 1451 1449 1448 1446 1444 1442 1440 1437 1435 1433 1430 1428 1426 1424 1421 1418
1458 1458 1458 1458 1458 1458 1458 1458 1458 1458 1457 1457 1456 1456 1456 1456 1455 1455 1455 1454 1454 1453 1451 1450 1449 1448 1447 1446 1445 1443 1442 1440 1438 1436 1434 1431 1429 1426 1424 1421 1418 1416 1413
1456 1456 1456 1456 1456 1456 1456 1456 1456 1455 1455 1454 1454 1453 1453 1452 1452 1452 1451 1451 1450 1449 1448 1446 1446 1444 1443 1442 1441 1440 1438 1437 1435 1433 1430 1428 1425 1422 1420 1417 1414 1411 1408
1454 1454 1454 1454 1454 1454 1454 1454 1453 1453 1453 1452 1451 1451 1450 1449 1449 1449 1448 1447 1447 1446 1444 1443 1442 1441 1439 1438 1437 1436 1434 1433 1431 1429 1427 1424 1421 1419 1416 1413 1411 1408 1404
1452 1452 1452 1452 1452 1451 1451 1451 1451 1451 1450 1450 1449 1449 1448 1448 1447 1446 1445 1444 1443 1443 1442 1440 1438 1438 1436 1435 1434 1432 1431 1429 1428 1426 1423 1421 1418 1415 1413 1410 1408 1405 1401
1450 1450 1450 1449 1449 1449 1449 1448 1448 1448 1448 1447 1447 1446 1446 1445 1444 1443 1442 1441 1440 1439 1438 1437 1436 1435 1433 1432 1431 1429 1428 1426 1424 1422 1420 1417 1415 1412 1410 1407 1404 1402 1398
1448 1447 1447 1447 1447 1447 1446 1446 1446 1445 1444 1444 1445 1444 1443 1442 1441 1440 1439 1438 1436 1436 1435 1434 1433 1432 1431 1429 1428 1426 1424 1423 1421 1419 1416 1414 1412 1409 1407 1404 1402 1399 1396
1446 1445 1445 1445 1445 1445 1444 1444 1444 1443 1442 1442 1441 1441 1440 1439 1438 1438 1436 1435 1434 1433 1432 1431 1430 1429 1428 1426 1425 1423 1421 1419 1418 1415 1413 1411 1408 1406 1404 1402 1399 1396 1394
1444 1444 1444 1443 1443 1442 1442 1442 1441 1441 1440 1439 1438 1438 1437 1436 1435 1434 1433 1432 1431 1430 1429 1428 1427 1426 1424 1423 1421 1420 1418 1416 1414 1412 1410 1408 1405 1403 1401 1399 1397 1394 1391
1442 1442 1441 1441 1441 1440 1440 1439 1439 1438 1438 1437 1436 1436 1435 1434 1433 1432 1430 1430 1429 1428 1427 1425 1424 1423 1421 1420 1418 1417 1415 1413 1411 1409 1407 1405 1403 1401 1399 1397 1394 1392 1389
1440 1440 1440 1439 1439 1438 1438 1437 1436 1436 1435 1434 1433 1433 1433 1432 1431 1429 1428 1427 1426 1425 1424 1422 1421 1420 1418 1417 1415 1413 1412 1410 1408 1406 1404 1402 1400 1398 1396 1394 1392 1390 1387
1439 1438 1438 1437 1437 1436 1436 1435 1434 1434 1433 1432 1431 1430 1429 1429 1428 1427 1425 1424 1423 1422 1421 1419 1418 1416 1415 1414 1412 1410 1409 1407 1406 1404 1402 1400 1398 1396 1394 1392 1390 1388 1385
1437 1437 1436 1435 1435 1434 1434 1433 1432 1432 1431 1430 1429 1428 1427 1426 1425 1424 1423 1421 1420 1419 1418 1416 1414 1413 1412 1410 1409 1407 1406 1404 1403 1401 1399 1398 1396 1394 1392 1390 1388 1386 1384
1436 1435 1435 1434 1433 1433 1432 1431 1431 1430 1429 1428 1427 1425 1424 1423 1422 1421 1420 1419 1417 1416 1414 1413 1411 1410 1409 1407 1406 1404 1403 1401 1400 1398 1397 1395 1393 1392 1390 1388 1386 1384 1382
1434 1434 1433 1432 1432 1431 1430 1429 1428 1428 1427 1426 1424 1423 1422 1421 1419 1418 1417 1416 1414 1413 1412 1410 1409 1407 1406 1404 1403 1401 1400 1399 1397 1396 1395 1393 1391 1390 1388 1386 1385 1383 1381